Погода в Патейне

Мьянма     16°46′22″N   94°43′58″E
темп.,
°C
ветер,
м/с
пор.,
м/с
влажн.,
%
обл.,
%
осадки,
мм/ч
давл.,
гПа
погр.,
м
18 мая, вт
вт1800:30+29зсз477336 0.0 1007636
03:30+29зсз3776100 0.0 1006468
06:30+29зсз3774100 0.0 1007545
09:30+35зсз444695 0.0 10081320
12:30+39зсз6435100 0.0 10062508
15:30+37зсз864145 0.0 10041372
18:30+31з67625 0.0 1005887
21:30+30з47705 0.0 1007790
19 мая, ср
ср1900:30+29з367387 0.0 1007626
03:30+30з4667100 0.0 10061009
06:30+30з356798 0.0 1008752
09:30+35з4444100 0.0 10091740
12:30+37з6435100 0.0 10062260
15:30+36зсз7437100 0.0 10041796
18:30+31з5554100 0.0 1005848
21:30+29зюз366898 0.0 1007624
20 мая, чт
чт2000:30+29зюз2572100 0.0 1007319
03:30+28з257595 0.0 1006202
06:30+29зюз2371100 0.0 1007192
09:30+34зюз334392 0.0 10081567
12:30+38зсз643472 0.0 10052481
15:30+35з864896 0.0 10041505
18:30+31з676325 0.0 1005987
21:30+30з47695 0.0 1007788
21 мая, пт
пт2100:30+29з377291 0.0 1007469
03:30+28зюз267582 0.0 1005244
06:30+29зюз2574100 0.0 1006245
09:30+33з335199 0.0 10071392
12:30+38зюз643595 0.0 10042436
15:30+36з864060 0.0 10021789
18:30+31з676199 0.0 1004951
21:30+29зюз487293 0.0 1006777
22 мая, сб
сб2200:30+29зюз377460 0.0 1005566
03:30+28юз2679100 0.0 1004305
06:30+29зюз1375100 0.0 1006219
09:30+34з2250100 0.1 10061736
12:30+36зюз544497 0.1 10031856
15:30+35зюз6446100 0.0 10011620
18:30+31з5664100 0.3 1003963
21:30+28юз357893 3.2 1005242